Regional Weather Roundup
Issued by NWS Kansas City/Pleasant Hill, MO

Home | Current Version | Previous Version | Text Only | Print | Product List | Glossary On
Versions: 1 2 3 4 5 6 7 8 9 10 11 12 13 14 15 16 17 18 19 20 21 22 23 24 25 26 27
000
ASUS43 KEAX 261910
RWREAX

WEATHER ROUNDUP FOR EASTERN KANSAS AND NORTHWEST MISSOURI
NATIONAL WEATHER SERVICE KANSAS CITY/PLEASANT HILL MO
200 PM CDT MON SEP 26 2016

KSZ040-057-103>105-MOZ028-029-037-043-262000-
...KANSAS CITY METROPOLITAN AREA...

CITY           SKY/WX    TMP DP  RH WIND       PRES   REMARKS
K.C. INTL      SUNNY     71  39  31 N7        30.22F
K.C. DOWNTOWN  SUNNY     74  38  27 NW7       30.21F
LEES SUMMIT    SUNNY     71  35  26 NW7G18    30.22F
OLATHE - IXD   SUNNY     71  38  29 NW8       30.24F
OLATHE - OJC   SUNNY     70  34  26 N7        30.23F
LAWRENCE       SUNNY     72  41  32 W5        30.23F

$$

MOZ001>008-011>017-020>025-030>033-038>040-044>046-053-054-262000-
...NORTHERN AND CENTRAL MISSOURI...

CITY           SKY/WX    TMP DP  RH WIND       PRES   REMARKS
ST. JOSEPH     SUNNY     74  40  29 NW16      30.21F
MOSBY          CLEAR     72  34  25 NW12G20   30.20F
WHITEMAN AFB   MOSUNNY   72  36  27 NW10      30.19F
CLINTON        SUNNY     72  37  28 NW10      30.22F
SEDALIA        SUNNY     75  36  24 NW10      30.20F
WARSAW         NOT AVBL
CHILLICOTHE      N/A     73  39  29 NW9G16    30.19F
KIRKSVILLE     SUNNY     71  39  31 NW15G24   30.16F

$$

MOZ041-047>049-056>058-063>065-088>090-097-262000-
...EASTERN AND SOUTHERN MISSOURI...

CITY           SKY/WX    TMP DP  RH WIND       PRES   REMARKS
ST. LOUIS INTL MOSUNNY   74  39  28 W12G22    30.14F
SPIRIT OF STL  SUNNY     73  41  31 NW10G20   30.13F
COLUMBIA       SUNNY     72  33  24 NW13      30.18F
JEFFERSON CITY SUNNY     73  38  27 NW8       30.17F
ROLLA          SUNNY     70  41  34 NW7       30.18F
OSAGE BEACH    SUNNY     71  41  33 NW8       30.21F
SPRINGFIELD    SUNNY     72  38  29 N14       30.21F
BRANSON        PTSUNNY   72  39  30 N13       30.22F
JOPLIN         SUNNY     71  42  35 N7G17     30.24F
WEST PLAINS    SUNNY     73  45  36 NW8       30.20F

$$

IAZ060-094-KSZ022-034>040-054-083-096-NEZ052-066-093-262000-
...KANSAS...SOUTHEAST NEBRASKA AND IOWA...

CITY           SKY/WX    TMP DP  RH WIND       PRES   REMARKS
TOPEKA         SUNNY     73  41  31 N12       30.23F
MANHATTAN      SUNNY     73  40  30 NW7       30.25F
EMPORIA        SUNNY     71  41  33 CALM      30.26F
CHANUTE        SUNNY     72  39  30 N9        30.25F
WICHITA        MOSUNNY   73  41  31 N7        30.28F
OMAHA          MOSUNNY   75  41  29 W17G24    30.15F
LINCOLN        SUNNY     76  36  23 W17G25    30.20F
FALLS CITY     SUNNY     73  44  35 W14G22    30.20F
LAMONI         SUNNY     72  41  32 NW17G24   30.16F
DES MOINES     MOSUNNY   72  37  28 NW20G29   30.09F

$$





USA.gov is the U.S. government's official web portal to all federal, state and local government web resources and services.